Time,TemperatureF,DewpointF,PressureIn,WindDirection,WindDirectionDegrees,WindSpeedMPH,WindSpeedGustMPH,Humidity,HourlyPrecipIn,Conditions,Clouds,dailyrainin,SoftwareType,DateUTC
2013-07-13 00:01:00,71.0,49.0,29.69,NW,326,3.0,15.0,45,0.00,,,0.01,,2013-07-13 05:01:00,
2013-07-13 00:11:00,71.0,49.0,29.69,NW,326,3.0,15.0,45,0.00,,,0.01,,2013-07-13 05:11:00,
2013-07-13 00:22:00,70.0,49.0,29.71,North,2,3.0,10.0,47,0.00,,,0.01,,2013-07-13 05:22:00,
2013-07-13 00:32:00,70.0,49.0,29.71,North,2,3.0,10.0,47,0.00,,,0.01,,2013-07-13 05:32:00,
2013-07-13 00:42:00,70.0,49.0,29.71,North,2,3.0,10.0,47,0.00,,,0.01,,2013-07-13 05:42:00,
2013-07-13 00:52:00,69.0,49.0,29.73,North,0,2.0,8.0,49,0.00,,,0.01,,2013-07-13 05:52:00,
2013-07-13 01:01:00,69.0,49.0,29.73,North,0,2.0,8.0,49,0.00,,,0.01,,2013-07-13 06:01:00,
2013-07-13 01:11:00,69.0,49.0,29.73,North,0,2.0,8.0,49,0.00,,,0.01,,2013-07-13 06:11:00,
2013-07-13 01:22:00,68.0,49.0,29.74,SSE,160,2.0,10.0,51,0.00,,,0.01,,2013-07-13 06:22:00,
2013-07-13 01:32:00,68.0,49.0,29.74,SSE,160,2.0,10.0,51,0.00,,,0.01,,2013-07-13 06:32:00,
2013-07-13 01:43:00,68.0,49.0,29.74,SSE,160,2.0,10.0,51,0.00,,,0.01,,2013-07-13 06:43:00,
2013-07-13 01:52:00,68.0,50.0,29.73,WSW,240,1.0,12.0,53,0.00,,,0.01,,2013-07-13 06:52:00,
2013-07-13 02:02:00,68.0,50.0,29.73,WSW,240,1.0,12.0,53,0.00,,,0.01,,2013-07-13 07:02:00,
2013-07-13 02:11:00,68.0,50.0,29.73,WSW,240,1.0,12.0,53,0.00,,,0.01,,2013-07-13 07:11:00,
2013-07-13 02:22:00,67.0,50.0,29.73,South,175,0.0,8.0,55,0.00,,,0.01,,2013-07-13 07:22:00,
2013-07-13 02:33:00,67.0,50.0,29.73,South,175,0.0,8.0,55,0.00,,,0.01,,2013-07-13 07:33:00,
2013-07-13 02:44:00,67.0,50.0,29.73,South,175,0.0,8.0,55,0.00,,,0.01,,2013-07-13 07:44:00,
2013-07-13 02:53:00,66.0,52.0,29.72,SE,137,1.0,8.0,60,0.00,,,0.01,,2013-07-13 07:53:00,
2013-07-13 03:01:00,66.0,52.0,29.72,SE,137,1.0,8.0,60,0.00,,,0.01,,2013-07-13 08:01:00,
2013-07-13 03:11:00,66.0,52.0,29.72,SE,137,1.0,8.0,60,0.00,,,0.01,,2013-07-13 08:11:00,
2013-07-13 03:22:00,67.0,51.0,29.73,NE,49,2.0,10.0,57,0.00,,,0.01,,2013-07-13 08:22:00,
2013-07-13 03:33:00,67.0,51.0,29.73,NE,49,2.0,10.0,57,0.00,,,0.01,,2013-07-13 08:33:00,
2013-07-13 03:43:00,67.0,51.0,29.73,NE,49,2.0,10.0,57,0.00,,,0.01,,2013-07-13 08:43:00,
2013-07-13 03:52:00,68.0,51.0,29.72,SSE,155,2.0,12.0,55,0.00,,,0.01,,2013-07-13 08:52:00,
2013-07-13 04:02:00,68.0,51.0,29.72,SSE,155,2.0,12.0,55,0.00,,,0.01,,2013-07-13 09:02:00,
2013-07-13 04:11:00,68.0,51.0,29.72,SSE,155,2.0,12.0,55,0.00,,,0.01,,2013-07-13 09:11:00,
2013-07-13 04:22:00,69.0,50.0,29.71,South,188,4.0,17.0,50,0.00,,,0.01,,2013-07-13 09:22:00,
2013-07-13 04:33:00,69.0,50.0,29.71,South,188,4.0,17.0,50,0.00,,,0.01,,2013-07-13 09:33:00,
2013-07-13 04:43:00,69.0,50.0,29.71,South,188,4.0,17.0,50,0.00,,,0.01,,2013-07-13 09:43:00,
2013-07-13 04:53:00,69.0,51.0,29.70,SSE,160,2.0,12.0,53,0.00,,,0.01,,2013-07-13 09:53:00,
2013-07-13 05:01:00,69.0,51.0,29.70,SSE,160,2.0,12.0,53,0.00,,,0.01,,2013-07-13 10:01:00,
2013-07-13 05:11:00,69.0,51.0,29.70,SSE,160,2.0,12.0,53,0.00,,,0.01,,2013-07-13 10:11:00,
2013-07-13 05:22:00,64.0,51.0,29.73,SSE,160,0.0,3.0,63,0.00,,,0.01,,2013-07-13 10:22:00,
2013-07-13 05:32:00,64.0,51.0,29.73,SSE,160,0.0,3.0,63,0.00,,,0.01,,2013-07-13 10:32:00,
2013-07-13 05:43:00,64.0,51.0,29.73,SSE,160,0.0,3.0,63,0.00,,,0.01,,2013-07-13 10:43:00,
2013-07-13 05:52:00,60.0,52.0,29.75,SSE,160,2.0,3.0,74,0.00,,,0.01,,2013-07-13 10:52:00,
2013-07-13 06:02:00,60.0,52.0,29.75,SSE,160,2.0,3.0,74,0.00,,,0.01,,2013-07-13 11:02:00,
2013-07-13 06:11:00,60.0,52.0,29.75,SSE,160,2.0,3.0,74,0.00,,,0.01,,2013-07-13 11:11:00,
2013-07-13 06:22:00,57.0,51.0,29.77,SSE,160,0.0,1.0,81,0.00,,,0.01,,2013-07-13 11:22:00,
2013-07-13 06:32:00,57.0,51.0,29.77,SSE,160,0.0,1.0,81,0.00,,,0.01,,2013-07-13 11:32:00,
2013-07-13 06:43:00,57.0,51.0,29.77,SSE,160,0.0,1.0,81,0.00,,,0.01,,2013-07-13 11:43:00,
2013-07-13 07:02:00,56.0,51.0,29.80,SSE,160,0.0,3.0,84,0.00,,,0.01,,2013-07-13 12:02:00,
2013-07-13 07:12:00,56.0,51.0,29.80,SSE,160,0.0,3.0,84,0.00,,,0.01,,2013-07-13 12:12:00,
2013-07-13 07:22:00,55.0,51.0,29.80,SSE,160,0.0,1.0,87,0.00,,,0.00,,2013-07-13 12:22:00,
2013-07-13 07:32:00,55.0,51.0,29.80,SSE,160,0.0,1.0,87,0.00,,,0.00,,2013-07-13 12:32:00,
2013-07-13 07:43:00,55.0,51.0,29.80,SSE,160,0.0,1.0,87,0.00,,,0.00,,2013-07-13 12:43:00,
2013-07-13 07:52:00,56.0,53.0,29.82,SSE,160,0.0,1.0,89,0.00,,,0.00,,2013-07-13 12:52:00,
2013-07-13 08:01:00,56.0,53.0,29.82,SSE,160,0.0,1.0,89,0.00,,,0.00,,2013-07-13 13:01:00,
2013-07-13 08:12:00,56.0,53.0,29.82,SSE,160,0.0,1.0,89,0.00,,,0.00,,2013-07-13 13:12:00,
2013-07-13 08:22:00,60.0,54.0,29.81,SSE,160,0.0,1.0,82,0.00,,,0.00,,2013-07-13 13:22:00,
2013-07-13 08:32:00,60.0,54.0,29.81,SSE,160,0.0,1.0,82,0.00,,,0.00,,2013-07-13 13:32:00,
2013-07-13 08:43:00,60.0,54.0,29.81,SSE,160,0.0,1.0,82,0.00,,,0.00,,2013-07-13 13:43:00,
2013-07-13 08:53:00,68.0,54.0,29.78,SSE,160,0.0,0.0,60,0.00,,,0.00,,2013-07-13 13:53:00,
2013-07-13 09:02:00,68.0,54.0,29.78,SSE,160,0.0,0.0,60,0.00,,,0.00,,2013-07-13 14:02:00,
2013-07-13 09:11:00,68.0,54.0,29.78,SSE,160,0.0,0.0,60,0.00,,,0.00,,2013-07-13 14:11:00,
2013-07-13 09:22:00,73.0,54.0,29.76,SSE,160,0.0,2.0,52,0.00,,,0.00,,2013-07-13 14:22:00,
2013-07-13 09:32:00,73.0,54.0,29.76,SSE,160,0.0,2.0,52,0.00,,,0.00,,2013-07-13 14:32:00,
2013-07-13 09:43:00,73.0,54.0,29.76,SSE,160,0.0,2.0,52,0.00,,,0.00,,2013-07-13 14:43:00,
2013-07-13 09:53:00,74.0,52.0,29.78,SSE,155,5.0,8.0,47,0.00,,,0.00,,2013-07-13 14:53:00,
2013-07-13 10:02:00,74.0,52.0,29.78,SSE,155,5.0,8.0,47,0.00,,,0.00,,2013-07-13 15:02:00,
2013-07-13 10:12:00,74.0,52.0,29.78,SSE,155,5.0,8.0,47,0.00,,,0.00,,2013-07-13 15:12:00,
2013-07-13 10:22:00,75.0,51.0,29.78,SE,140,4.0,7.0,43,0.00,,,0.00,,2013-07-13 15:22:00,
2013-07-13 10:33:00,75.0,51.0,29.78,SE,140,4.0,7.0,43,0.00,,,0.00,,2013-07-13 15:33:00,
2013-07-13 10:43:00,75.0,51.0,29.78,SE,140,4.0,7.0,43,0.00,,,0.00,,2013-07-13 15:43:00,
2013-07-13 10:53:00,77.0,51.0,29.78,ESE,112,1.0,7.0,41,0.00,,,0.00,,2013-07-13 15:53:00,
2013-07-13 11:02:00,77.0,51.0,29.78,ESE,112,1.0,7.0,41,0.00,,,0.00,,2013-07-13 16:02:00,
2013-07-13 11:11:00,77.0,51.0,29.78,ESE,112,1.0,7.0,41,0.00,,,0.00,,2013-07-13 16:11:00,
2013-07-13 11:22:00,78.0,52.0,29.76,SE,139,3.0,8.0,40,0.00,,,0.00,,2013-07-13 16:22:00,
2013-07-13 11:32:00,78.0,52.0,29.76,SE,139,3.0,8.0,40,0.00,,,0.00,,2013-07-13 16:32:00,
2013-07-13 11:43:00,78.0,52.0,29.76,SE,139,3.0,8.0,40,0.00,,,0.00,,2013-07-13 16:43:00,
2013-07-13 11:53:00,78.0,51.0,29.77,SSE,167,3.0,8.0,39,0.00,,,0.00,,2013-07-13 16:53:00,
2013-07-13 12:01:00,78.0,51.0,29.77,SSE,167,3.0,8.0,39,0.00,,,0.00,,2013-07-13 17:01:00,
2013-07-13 12:12:00,78.0,51.0,29.77,SSE,167,3.0,8.0,39,0.00,,,0.00,,2013-07-13 17:12:00,
2013-07-13 12:22:00,80.0,50.0,29.75,East,85,1.0,8.0,35,0.00,,,0.00,,2013-07-13 17:22:00,
2013-07-13 12:33:00,80.0,50.0,29.75,East,85,1.0,8.0,35,0.00,,,0.00,,2013-07-13 17:33:00,
2013-07-13 12:43:00,80.0,50.0,29.75,East,85,1.0,8.0,35,0.00,,,0.00,,2013-07-13 17:43:00,
2013-07-13 12:52:00,80.0,47.0,29.77,South,191,2.0,8.0,31,0.00,,,0.00,,2013-07-13 17:52:00,
2013-07-13 13:01:00,80.0,47.0,29.77,South,191,2.0,8.0,31,0.00,,,0.00,,2013-07-13 18:01:00,
2013-07-13 13:11:00,80.0,47.0,29.77,South,191,2.0,8.0,31,0.00,,,0.00,,2013-07-13 18:11:00,
2013-07-13 13:22:00,79.0,47.0,29.77,SSE,148,4.0,8.0,33,0.00,,,0.00,,2013-07-13 18:22:00,
2013-07-13 13:32:00,79.0,47.0,29.77,SSE,148,4.0,8.0,33,0.00,,,0.00,,2013-07-13 18:32:00,
2013-07-13 13:44:00,79.0,47.0,29.77,SSE,148,4.0,8.0,33,0.00,,,0.00,,2013-07-13 18:44:00,
2013-07-13 13:53:00,81.0,45.0,29.75,SSE,152,2.0,10.0,28,0.00,,,0.00,,2013-07-13 18:53:00,
2013-07-13 14:02:00,81.0,45.0,29.75,SSE,152,2.0,10.0,28,0.00,,,0.00,,2013-07-13 19:02:00,
2013-07-13 14:11:00,81.0,45.0,29.75,SSE,152,2.0,10.0,28,0.00,,,0.00,,2013-07-13 19:11:00,
2013-07-13 14:22:00,83.0,46.0,29.74,ENE,75,2.0,8.0,27,0.00,,,0.00,,2013-07-13 19:22:00,
2013-07-13 14:32:00,83.0,46.0,29.74,ENE,75,2.0,8.0,27,0.00,,,0.00,,2013-07-13 19:32:00,
2013-07-13 14:44:00,83.0,46.0,29.74,ENE,75,2.0,8.0,27,0.00,,,0.00,,2013-07-13 19:44:00,
2013-07-13 14:52:00,83.0,45.0,29.73,SE,145,2.0,12.0,26,0.00,,,0.00,,2013-07-13 19:52:00,
2013-07-13 15:01:00,83.0,45.0,29.73,SE,145,2.0,12.0,26,0.00,,,0.00,,2013-07-13 20:01:00,
2013-07-13 15:11:00,83.0,45.0,29.73,SE,145,2.0,12.0,26,0.00,,,0.00,,2013-07-13 20:11:00,
2013-07-13 15:22:00,83.0,47.0,29.72,ENE,72,2.0,12.0,28,0.00,,,0.00,,2013-07-13 20:22:00,
2013-07-13 15:33:00,83.0,47.0,29.72,ENE,72,2.0,12.0,28,0.00,,,0.00,,2013-07-13 20:33:00,
2013-07-13 15:43:00,83.0,47.0,29.72,ENE,72,2.0,12.0,28,0.00,,,0.00,,2013-07-13 20:43:00,
2013-07-13 15:53:00,83.0,47.0,29.71,NE,37,2.0,13.0,28,0.00,,,0.00,,2013-07-13 20:53:00,
2013-07-13 16:02:00,83.0,47.0,29.71,NE,37,2.0,13.0,28,0.00,,,0.00,,2013-07-13 21:02:00,
2013-07-13 16:12:00,83.0,47.0,29.71,NE,37,2.0,13.0,28,0.00,,,0.00,,2013-07-13 21:12:00,
2013-07-13 16:22:00,84.0,46.0,29.70,ESE,120,1.0,12.0,27,0.00,,,0.00,,2013-07-13 21:22:00,
2013-07-13 16:32:00,84.0,46.0,29.70,ESE,120,1.0,12.0,27,0.00,,,0.00,,2013-07-13 21:32:00,
2013-07-13 16:43:00,84.0,46.0,29.70,ESE,120,1.0,12.0,27,0.00,,,0.00,,2013-07-13 21:43:00,
2013-07-13 16:53:00,84.0,45.0,29.72,South,184,3.0,18.0,26,0.00,,,0.00,,2013-07-13 21:53:00,
2013-07-13 17:01:00,84.0,45.0,29.72,South,184,3.0,18.0,26,0.00,,,0.00,,2013-07-13 22:01:00,
2013-07-13 17:12:00,84.0,45.0,29.72,South,184,3.0,18.0,26,0.00,,,0.00,,2013-07-13 22:12:00,
2013-07-13 17:22:00,85.0,44.0,29.72,SSE,160,2.0,12.0,24,0.00,,,0.00,,2013-07-13 22:22:00,
2013-07-13 17:32:00,85.0,44.0,29.72,SSE,160,2.0,12.0,24,0.00,,,0.00,,2013-07-13 22:32:00,
2013-07-13 17:43:00,85.0,44.0,29.72,SSE,160,2.0,12.0,24,0.00,,,0.00,,2013-07-13 22:43:00,
2013-07-13 17:53:00,84.0,43.0,29.75,ENE,69,1.0,12.0,24,0.00,,,0.00,,2013-07-13 22:53:00,
2013-07-13 18:01:00,84.0,43.0,29.75,ENE,69,1.0,12.0,24,0.00,,,0.00,,2013-07-13 23:01:00,
2013-07-13 18:11:00,84.0,43.0,29.75,ENE,69,1.0,12.0,24,0.00,,,0.00,,2013-07-13 23:11:00,
2013-07-13 18:22:00,85.0,44.0,29.73,SSE,155,2.0,9.0,24,0.00,,,0.00,,2013-07-13 23:22:00,
2013-07-13 18:32:00,85.0,44.0,29.73,SSE,155,2.0,9.0,24,0.00,,,0.00,,2013-07-13 23:32:00,
2013-07-13 18:42:00,85.0,44.0,29.73,SSE,155,2.0,9.0,24,0.00,,,0.00,,2013-07-13 23:42:00,
2013-07-13 18:53:00,84.0,45.0,29.74,SE,127,4.0,10.0,26,0.00,,,0.00,,2013-07-13 23:53:00,
2013-07-13 19:01:00,84.0,45.0,29.74,SE,127,4.0,10.0,26,0.00,,,0.00,,2013-07-14 00:01:00,
2013-07-13 19:11:00,84.0,45.0,29.74,SE,127,4.0,10.0,26,0.00,,,0.00,,2013-07-14 00:11:00,
2013-07-13 19:21:00,83.0,46.0,29.73,East,85,3.0,12.0,27,0.00,,,0.00,,2013-07-14 00:21:00,
2013-07-13 19:33:00,83.0,46.0,29.73,East,85,3.0,12.0,27,0.00,,,0.00,,2013-07-14 00:33:00,
2013-07-13 19:42:00,83.0,46.0,29.73,East,85,3.0,12.0,27,0.00,,,0.00,,2013-07-14 00:42:00,
2013-07-13 19:53:00,82.0,46.0,29.69,East,86,3.0,12.0,28,0.00,,,0.00,,2013-07-14 00:53:00,
2013-07-13 20:02:00,82.0,46.0,29.69,East,86,3.0,12.0,28,0.00,,,0.00,,2013-07-14 01:02:00,
2013-07-13 20:11:00,82.0,46.0,29.69,East,86,3.0,12.0,28,0.00,,,0.00,,2013-07-14 01:11:00,
2013-07-13 20:22:00,81.0,45.0,29.70,SE,127,3.0,12.0,28,0.00,,,0.00,,2013-07-14 01:22:00,
2013-07-13 20:32:00,81.0,45.0,29.70,SE,127,3.0,12.0,28,0.00,,,0.00,,2013-07-14 01:32:00,
2013-07-13 20:43:00,81.0,45.0,29.70,SE,127,3.0,12.0,28,0.00,,,0.00,,2013-07-14 01:43:00,
2013-07-13 20:52:00,79.0,46.0,29.66,SSE,150,1.0,10.0,31,0.00,,,0.00,,2013-07-14 01:52:00,
2013-07-13 21:01:00,79.0,46.0,29.66,SSE,150,1.0,10.0,31,0.00,,,0.00,,2013-07-14 02:01:00,
2013-07-13 21:11:00,79.0,46.0,29.66,SSE,150,1.0,10.0,31,0.00,,,0.00,,2013-07-14 02:11:00,
2013-07-13 21:22:00,77.0,44.0,29.68,ENE,70,3.0,12.0,31,0.00,,,0.00,,2013-07-14 02:22:00,
2013-07-13 21:32:00,77.0,44.0,29.68,ENE,70,3.0,12.0,31,0.00,,,0.00,,2013-07-14 02:32:00,
2013-07-13 21:43:00,77.0,44.0,29.68,ENE,70,3.0,12.0,31,0.00,,,0.00,,2013-07-14 02:43:00,
2013-07-13 21:53:00,76.0,45.0,29.68,SE,137,1.0,10.0,33,0.00,,,0.00,,2013-07-14 02:53:00,
2013-07-13 22:01:00,76.0,45.0,29.68,SE,137,1.0,10.0,33,0.00,,,0.00,,2013-07-14 03:01:00,
2013-07-13 22:11:00,76.0,45.0,29.68,SE,137,1.0,10.0,33,0.00,,,0.00,,2013-07-14 03:11:00,
2013-07-13 22:22:00,75.0,45.0,29.70,SSE,155,5.0,18.0,34,0.00,,,0.00,,2013-07-14 03:22:00,
2013-07-13 22:32:00,75.0,45.0,29.70,SSE,155,5.0,18.0,34,0.00,,,0.00,,2013-07-14 03:32:00,
2013-07-13 22:43:00,75.0,45.0,29.70,SSE,155,5.0,18.0,34,0.00,,,0.00,,2013-07-14 03:43:00,
2013-07-13 22:53:00,74.0,45.0,29.70,ESE,119,4.0,16.0,35,0.00,,,0.00,,2013-07-14 03:53:00,
2013-07-13 23:02:00,74.0,45.0,29.70,ESE,119,4.0,16.0,35,0.00,,,0.00,,2013-07-14 04:02:00,
2013-07-13 23:11:00,74.0,45.0,29.70,ESE,119,4.0,16.0,35,0.00,,,0.00,,2013-07-14 04:11:00,
2013-07-13 23:22:00,73.0,44.0,29.73,East,84,8.0,16.0,35,0.00,,,0.00,,2013-07-14 04:22:00,
2013-07-13 23:32:00,73.0,44.0,29.73,East,84,8.0,16.0,35,0.00,,,0.00,,2013-07-14 04:32:00,
2013-07-13 23:42:00,73.0,44.0,29.73,East,84,8.0,16.0,35,0.00,,,0.00,,2013-07-14 04:42:00,
2013-07-13 23:54:00,72.0,45.0,29.73,ESE,103,5.0,13.0,38,0.00,,,0.00,,2013-07-14 04:54:00,